Location: Marcé
(47.5801°N, 0.3280°W)
Time: 12:12:07
(UTC+01:00)

deb Explorer IX - Pass Details

Date: 08 December 2021
Orbit: 544 x 1082 km, 38.8° (Epoch: 17 January)

Event Time Altitude Azimuth Distance (km) Brightness Sun altitude
Rises 11:12:21 0° 247° (WSW) 3,173 ? 16.1°
Reaches altitude 10° 11:15:13 10° 236° (SW) 2,153 ? 16.3°
Maximum altitude 11:19:23 28° 179° (S) 1,208 ? 16.6°
Drops below altitude 10° 11:23:08 10° 120° (ESE) 1,922 ? 16.8°
Sets 11:25:33 0° 108° (ESE) 2,770 ? 16.9°
